Location: Chuathbaluk
(61.5726°N, 159.2454°W)
Time: 03:42:28
(UTC+00:00)

Transit 4A - Pass Details

Date: 03 December 2020
Orbit: 864 x 980 km, 66.8° (Epoch: 26 January)

Event Time Altitude Azimuth Distance (km) Brightness Sun altitude
Rises 18:50:00 0° 222° (SW) 3,657 11.0 -4.3°
Reaches altitude 10° 18:52:33 10° 221° (SW) 2,721 10.4 -4.1°
Maximum altitude 18:58:55 74° 138° (SE) 1,024 8.4 -3.5°
Drops below altitude 10° 19:05:19 10° 55° (NE) 2,739 10.5 -3.0°
Sets 19:07:53 0° 53° (NE) 3,683 11.1 -2.8°
